Location: Laguna de la Cañada del Gallo
(40.3974°N, 5.2096°W)
Time: 11:11:57
(UTC+00:00)

Okean-O - Pass Details

Date: 18 April 2024
Orbit: 633 x 635 km, 98.0° (Epoch: 21 May)

Event Time Altitude Azimuth Distance (km) Brightness Sun altitude
Exits shadow 20:48:51 34° 163° (SSE) 1,040 3.3 -19.0°
Maximum altitude 20:50:44 86° 76° (ENE) 643 2.5 -19.3°
Drops below altitude 10° 20:55:09 10° 348° (NNW) 2,029 5.8 -20.0°
Sets 20:57:22 0° 348° (NNW) 2,942 6.8 -20.3°
